Temp
0 0 -0 0 0 0 0 1 1 1 1 1 1 2 2 2 2 3 3 3 3 3 3 4 4 5 5 6 5 2 3 3 3 2 3 4 4 4 4 3 4 5 5 6 6 7 8
-1 -1 -1 -0 -0 -0 0 1 1 1 1 1 1 1 1 1 2 2 3 3 3 3 3 3 4 4 5 5 5 4 4 4 2 2 2 3 3 2 3 3 4 5 5 6 7 7 8
-1 -1 -0 -0 -0 -0 -0 -0 -0 -0 0 0 0 1 1 1 1 2 2 2 2 2 2 3 4 4 5 4 4 3 4 4 3 1 2 2 2 2 3 3 4 5 5 6 6 7 8
-2 -2 -1 -1 -1 -1 -1 -1 -1 -0 -0 -0 -0 0 0 1 1 1 1 1 2 2 2 3 3 4 5 5 5 4 3 3 2 1 1 2 1 2 3 3 4 4 5 5 6 7 8
-3 -2 -2 -1 -1 -1 -1 -1 -1 -1 -1 -1 -1 -0 -0 0 0 0 1 1 2 2 2 2 3 3 4 4 3 4 3 3 2 1 1 1 2 2 2 3 3 4 4 5 6 7 8
-3 -2 -2 -1 -2 -2 -2 -2 -2 -1 -1 -1 -1 -1 -0 -0 -0 -0 0 1 1 1 2 2 2 3 3 2 2 2 2 2 1 1 1 1 1 1 2 2 2 3 4 5 6 8 8
-3 -3 -2 -2 -2 -2 -2 -2 -2 -2 -2 -2 -1 -2 -1 -1 -1 -1 -0 0 0 1 2 2 2 4 2 2 2 2 -0 0 0 0 -1 -0 -0 0 1 2 2 3 4 4 5 7 8
-3 -3 -3 -2 -2 -3 -2 -2 -3 -2 -2 -2 -2 -2 -2 -2 -1 -1 -1 -1 -1 -1 3 2 4 4 3 2 2 2 -0 -1 -0 -0 -1 -1 -2 0 1 2 2 3 3 4 5 7 7
-3 -3 -3 -3 -3 -3 -3 -3 -3 -3 -3 -3 -2 -2 -2 -2 -2 -2 -2 -2 -1 -1 -1 3 3 2 3 2 2 2 -0 -1 -2 -2 -1 -2 -1 -0 0 1 2 2 3 4 5 7 7
-3 -3 -3 -3 -3 -3 -3 -3 -4 -4 -3 -3 -3 -3 -3 -3 -3 -3 -3 -2 -2 -1 -1 2 2 2 1 1 1 1 1 -1 -2 -1 -2 -2 -1 -2 -0 0 2 3 3 4 5 6 6
-3 -3 -3 -3 -3 -3 -3 -3 -4 -4 -4 -4 -3 -4 -4 -3 -3 -3 -3 -3 -3 -2 -5 1 0 1 1 1 0 0 0 -1 -2 -1 -1 -1 -1 -2 -1 0 2 2 3 4 4 5 7
-3 -3 -3 -3 -3 -3 -3 -3 -4 -4 -4 -4 -4 -4 -4 -4 -4 -4 -4 -4 -3 -4 -4 1 1 1 0 1 0 0 -0 -1 -1 -1 -2 -1 -2 -2 -1 -0 0 1 1 1 3 5 5
-3 -4 -4 -4 -4 -4 -4 -4 -4 -4 -4 -4 -4 -4 -5 -5 -5 -5 -5 -5 -5 -5 1 1 1 0 0 1 1 0 0 -0 -1 -2 -1 -1 -1 -1 -2 -1 -0 1 -1 1 3 3 3
-4 -4 -4 -4 -4 -5 -5 -5 -5 -5 -5 -5 -5 -5 -6 -6 -6 -6 -6 -6 -6 -2 -0 1 1 0 0 1 2 1 0 -1 -1 -1 -1 -0 -0 -0 -1 -1 -1 0 -1 0 3 2 5
-4 -4 -4 -5 -5 -6 -6 -6 -6 -7 -6 -6 -6 -6 -5 -7 -6 -7 -7 -9 -6 -2 -1 -1 -0 0 1 1 1 1 1 1 -0 -0 -1 0 0 -0 0 1 0 0 1 1 1 -0 3
-5 -5 -5 -6 -6 -7 -7 -8 -9 -8 -9 -9 -7 -7 -6 -7 -7 -8 -8 -9 -6 -3 -3 -2 -2 -1 0 1 1 1 1 0 0 -2 0 -0 -0 1 0 -0 0 -0 1 0 -1 0 1
-6 -6 -6 -7 -7 -8 -9 -9 -10 -11 -11 -12 -10 -9 -8 -8 -8 -9 -9 -8 -5 -4 -4 -3 -3 -2 -2 -1 -0 0 0 -1 -2 -2 -1 -1 -1 0 1 2 1 1 0 -2 -1 1 2
-6 -7 -8 -8 -9 -9 -10 -10 -11 -12 -12 -12 -12 -11 -10 -9 -10 -9 -8 -7 -7 -5 -4 -5 -4 -3 -3 -3 -2 -1 -1 -1 -2 -2 -1 -1 -1 0 1 2 2 1 2 -0 -1 1 3
-7 -8 -8 -9 -10 -11 -10 -11 -11 -12 -12 -12 -12 -11 -10 -10 -9 -9 -8 -8 -8 -7 -5 -5 -5 -4 -4 -3 -3 -2 -2 -2 -3 -2 -2 -1 -1 -0 1 1 2 1 2 -1 -1 0 -0
-8 -9 -9 -10 -10 -11 -11 -12 -13 -12 -12 -12 -12 -12 -10 -10 -9 -9 -9 -8 -8 -7 -6 -6 -6 -5 -4 -4 -3 -3 -2 -2 -3 -3 -3 -2 -2 -2 -2 -1 -1 0 0 1 -1 -1 -0
-9 -10 -10 -11 -11 -11 -12 -13 -12 -12 -12 -12 -12 -12 -11 -10 -9 -9 -9 -8 -8 -7 -7 -6 -6 -5 -5 -4 -3 -3 -3 -2 -2 -2 -2 -3 -3 -2 -2 -1 -1 -2 -1 0 -1 -1 -0
-10 -10 -11 -12 -13 -13 -13 -13 -13 -12 -12 -13 -12 -12 -11 -11 -11 -11 -9 -9 -9 -7 -8 -7 -6 -5 -5 -5 -4 -4 -4 -4 -3 -3 -3 -3 -4 -3 -2 -1 -0 -1 -1 0 -1 0 -0
-10 -11 -12 -13 -13 -14 -14 -13 -13 -13 -13 -13 -12 -12 -12 -11 -11 -10 -10 -9 -8 -8 -7 -8 -7 -6 -5 -5 -5 -4 -4 -4 -4 -4 -4 -4 -4 -4 -3 -2 -1 0 1 1 1 1 -0
-11 -12 -12 -13 -13 -13 -14 -14 -13 -13 -13 -13 -12 -12 -12 -11 -11 -10 -10 -9 -9 -8 -8 -7 -8 -7 -6 -5 -5 -5 -4 -5 -4 -4 -4 -5 -4 -4 -3 -3 -2 0 2 2 2 -1 -1
-11 -12 -12 -13 -13 -14 -13 -13 -13 -13 -13 -13 -13 -12 -12 -11 -11 -10 -10 -11 -9 -9 -8 -8 -7 -7 -7 -6 -6 -6 -5 -5 -4 -4 -4 -3 -4 -4 -3 -3 -2 -0 1 2 1 1 2
-11 -12 -12 -12 -13 -13 -13 -13 -13 -13 -13 -13 -12 -12 -12 -12 -11 -11 -11 -11 -10 -9 -8 -8 -7 -7 -7 -7 -7 -6 -6 -4 -4 -4 -3 -3 -4 -4 -4 -3 -3 -2 -0 1 1 0 1
-11 -11 -11 -11 -12 -12 -12 -12 -13 -13 -13 -13 -12 -12 -12 -12 -11 -12 -11 -11 -11 -10 -9 -8 -8 -8 -7 -7 -7 -7 -7 -5 -5 -4 -4 -4 -5 -5 -5 -4 -3 -2 -3 -2 0 -2 -1
-11 -11 -11 -11 -11 -11 -12 -12 -12 -12 -13 -13 -12 -13 -12 -12 -11 -11 -11 -11 -11 -10 -10 -8 -8 -8 -8 -7 -7 -7 -6 -5 -5 -5 -4 -5 -5 -5 -5 -4 -4 -1 -2 -2 -1 -1 -1
-11 -11 -10 -10 -11 -11 -11 -11 -11 -12 -13 -13 -13 -13 -12 -13 -12 -11 -11 -11 -11 -10 -10 -9 -9 -8 -8 -8 -7 -7 -6 -5 -5 -5 -5 -5 -5 -4 -4 -3 -2 -2 -1 -1 -1 -0 -1
Height
3096 3095 3093 3092 3092 3091 3091 3090 3089 3086 3084 3083 3082 3082 3081 3080 3080 3078 3078 3078 3078 3078 3075 3073 3069 3067 3067 3063 3066 3061 3058 3060 3063 3064 3065 3067 3069 3074 3074 3076 3080 3078 3080 3083 3084 3085 3087
3090 3090 3088 3088 3087 3087 3087 3086 3085 3082 3080 3078 3077 3075 3075 3075 3074 3074 3074 3073 3073 3071 3071 3067 3063 3061 3061 3059 3056 3058 3054 3057 3059 3059 3060 3064 3068 3071 3071 3072 3073 3076 3078 3077 3078 3080 3082
3085 3085 3084 3082 3082 3081 3080 3080 3079 3078 3075 3074 3072 3072 3070 3070 3069 3069 3068 3068 3067 3066 3064 3061 3058 3055 3055 3054 3051 3049 3049 3051 3053 3053 3057 3060 3062 3064 3065 3064 3068 3070 3071 3071 3070 3073 3075
3081 3079 3079 3079 3078 3077 3076 3075 3074 3072 3070 3069 3068 3067 3066 3065 3064 3063 3063 3062 3062 3060 3059 3055 3052 3049 3050 3048 3045 3044 3045 3048 3048 3048 3052 3058 3057 3059 3059 3061 3061 3063 3064 3063 3063 3069 3070
3076 3076 3074 3073 3072 3072 3071 3070 3067 3065 3065 3064 3064 3062 3061 3061 3059 3058 3057 3056 3056 3055 3054 3050 3048 3045 3044 3043 3040 3042 3043 3043 3043 3044 3047 3051 3052 3054 3057 3056 3058 3059 3058 3060 3061 3063 3065
3070 3069 3071 3068 3067 3067 3065 3064 3062 3060 3060 3060 3059 3058 3057 3056 3054 3053 3052 3050 3051 3049 3048 3045 3042 3042 3040 3037 3037 3036 3036 3038 3040 3040 3042 3044 3047 3048 3051 3052 3050 3055 3057 3057 3057 3057 3061
3066 3064 3064 3062 3061 3060 3060 3059 3057 3055 3055 3055 3055 3054 3053 3052 3050 3049 3049 3047 3048 3045 3043 3039 3037 3033 3031 3033 3032 3032 3031 3033 3036 3038 3038 3040 3040 3039 3046 3049 3051 3052 3054 3052 3052 3054 3059
3057 3056 3056 3055 3055 3055 3053 3053 3052 3050 3049 3049 3049 3049 3049 3048 3046 3045 3044 3042 3038 3038 3033 3033 3030 3027 3028 3027 3028 3026 3028 3031 3033 3034 3032 3035 3031 3037 3043 3047 3049 3049 3049 3046 3047 3050 3052
3051 3049 3049 3047 3048 3048 3048 3047 3046 3044 3043 3043 3043 3043 3044 3043 3042 3042 3040 3040 3036 3034 3028 3028 3023 3024 3024 3024 3024 3023 3023 3027 3029 3030 3029 3030 3030 3032 3037 3040 3044 3044 3045 3045 3047 3046 3049
3045 3045 3044 3043 3042 3042 3041 3040 3039 3039 3038 3037 3036 3038 3038 3039 3039 3038 3035 3035 3035 3032 3027 3022 3020 3018 3022 3022 3023 3021 3019 3025 3026 3029 3028 3027 3024 3026 3032 3033 3039 3040 3043 3044 3044 3046 3044
3040 3039 3039 3038 3037 3036 3035 3034 3033 3031 3031 3030 3030 3033 3034 3031 3032 3034 3033 3034 3033 3032 3032 3019 3018 3018 3018 3022 3021 3021 3020 3021 3022 3026 3028 3026 3023 3024 3027 3030 3034 3036 3041 3042 3042 3041 3041
3034 3033 3033 3032 3030 3029 3028 3027 3026 3025 3024 3023 3024 3026 3028 3026 3030 3028 3030 3030 3032 3034 3024 3018 3017 3015 3017 3019 3018 3019 3021 3020 3022 3023 3023 3023 3022 3022 3023 3026 3029 3036 3036 3036 3038 3040 3035
3028 3027 3026 3025 3024 3022 3021 3020 3019 3018 3017 3017 3017 3019 3022 3021 3025 3024 3026 3027 3031 3027 3019 3017 3015 3016 3015 3017 3016 3016 3018 3017 3017 3020 3020 3019 3017 3019 3018 3024 3028 3033 3037 3042 3036 3035 3030
3022 3021 3019 3018 3017 3015 3014 3013 3012 3010 3009 3009 3009 3012 3014 3014 3019 3019 3022 3024 3023 3016 3014 3016 3014 3013 3013 3014 3016 3015 3015 3014 3014 3016 3018 3017 3016 3014 3016 3021 3023 3027 3032 3036 3030 3029 3026
3015 3013 3012 3010 3009 3008 3006 3005 3004 3003 3002 3002 3001 3004 3003 3010 3012 3014 3017 3016 3011 3012 3013 3012 3011 3010 3009 3010 3014 3014 3012 3011 3013 3014 3017 3015 3013 3011 3013 3017 3022 3021 3022 3030 3033 3030 3026
3007 3005 3003 3002 3001 3000 2999 2997 2997 2996 2995 2994 2994 2994 2998 3002 3004 3007 3008 3004 3004 3007 3008 3008 3010 3008 3008 3009 3010 3011 3011 3009 3010 3011 3013 3013 3012 3009 3012 3015 3016 3018 3022 3027 3030 3028 3028
2998 2997 2995 2994 2993 2992 2991 2991 2991 2990 2989 2989 2989 2986 2995 2994 2996 2999 2996 2996 2998 3004 3008 3010 3009 3008 3007 3007 3008 3009 3010 3009 3009 3009 3010 3012 3012 3009 3010 3011 3012 3016 3017 3021 3024 3024 3019
2990 2989 2987 2986 2985 2984 2984 2984 2985 2985 2985 2985 2985 2983 2988 2990 2992 2991 2990 2993 2996 2998 3000 3001 3004 3005 3005 3005 3005 3007 3008 3006 3008 3008 3007 3009 3008 3006 3006 3008 3009 3011 3012 3016 3017 3019 3018
2981 2980 2979 2978 2977 2976 2977 2978 2979 2980 2982 2982 2980 2979 2984 2985 2985 2984 2987 2989 2991 2993 2995 2997 3000 3003 3005 3005 3007 3005 3006 3006 3005 3006 3005 3006 3007 3005 3003 3005 3006 3007 3009 3011 3014 3017 3016
2973 2972 2970 2970 2969 2969 2970 2971 2974 2976 2978 2979 2979 2977 2979 2979 2980 2980 2985 2986 2986 2988 2990 2993 2995 2998 3000 3002 3003 3003 3004 3005 3004 3004 3004 3004 3005 3004 3004 3003 3004 3002 3004 3007 3010 3011 3010
2964 2963 2961 2961 2962 2962 2963 2966 2968 2971 2973 2975 2974 2974 2977 2974 2977 2980 2983 2984 2983 2984 2987 2990 2992 2994 2996 2999 3000 3001 3002 3002 3002 3002 3001 3003 3002 3001 2998 2999 3000 2997 2997 3000 3002 3006 3006
2956 2955 2954 2954 2955 2955 2958 2960 2962 2966 2968 2969 2970 2973 2974 2971 2974 2977 2978 2978 2979 2980 2983 2984 2986 2991 2993 2994 2995 2995 2995 2997 2998 2999 2998 3000 2999 2997 2996 2998 2996 2996 2992 2996 2997 2999 3001
2948 2947 2947 2948 2948 2949 2951 2954 2957 2960 2962 2962 2966 2969 2970 2969 2971 2973 2974 2975 2976 2979 2978 2979 2981 2984 2986 2988 2988 2990 2992 2993 2995 2997 2997 2999 2999 2996 2993 2992 2992 2992 2991 2992 2992 2994 2998
2940 2939 2939 2940 2940 2942 2944 2946 2950 2954 2955 2958 2962 2966 2967 2963 2968 2969 2970 2973 2973 2974 2973 2976 2978 2979 2983 2983 2984 2987 2988 2989 2990 2993 2996 2996 2998 2998 2994 2994 2991 2988 2986 2988 2988 2991 2995
2932 2931 2932 2932 2934 2935 2938 2941 2943 2947 2950 2952 2957 2961 2962 2961 2964 2966 2969 2970 2970 2968 2969 2972 2974 2976 2977 2980 2983 2985 2985 2985 2985 2986 2988 2993 2995 2996 2996 2993 2990 2986 2986 2988 2987 2992 2990
2924 2925 2925 2926 2928 2929 2932 2934 2937 2940 2944 2946 2952 2956 2958 2958 2958 2963 2965 2969 2967 2966 2966 2970 2971 2972 2975 2979 2982 2982 2983 2984 2983 2980 2979 2984 2988 2993 2993 2991 2990 2983 2982 2983 2985 2987 2987
2916 2917 2918 2920 2922 2924 2926 2928 2931 2934 2938 2941 2946 2950 2953 2953 2956 2962 2963 2966 2966 2965 2965 2967 2969 2971 2973 2974 2977 2979 2981 2983 2980 2978 2980 2979 2983 2983 2988 2988 2984 2983 2982 2982 2985 2990 2985
2909 2910 2911 2913 2915 2917 2919 2922 2925 2928 2931 2936 2940 2945 2948 2949 2951 2955 2959 2958 2962 2964 2963 2965 2969 2968 2970 2972 2975 2976 2977 2977 2974 2974 2972 2972 2978 2979 2985 2985 2983 2983 2982 2984 2983 2983 2984
2902 2903 2905 2906 2907 2908 2910 2912 2916 2921 2925 2930 2934 2940 2945 2946 2948 2950 2953 2955 2960 2963 2962 2962 2964 2964 2967 2970 2972 2973 2973 2972 2971 2970 2968 2971 2971 2975 2976 2976 2977 2976 2978 2979 2980 2981 2982
Wind_Speed
20 20 21 21 22 23 25 26 27 25 23 22 21 22 21 21 21 22 21 19 20 20 19 19 19 18 16 20 8 18 17 20 17 17 14 14 21 25 28 25 21 27 27 26 28 30 27
18 20 21 23 25 27 29 29 29 26 24 23 22 22 21 21 21 21 21 19 19 18 19 18 19 18 16 15 17 11 17 14 17 18 9 11 14 18 20 24 26 23 25 27 26 29 30
22 25 25 25 26 25 25 25 25 25 24 23 22 23 21 20 19 20 18 19 18 19 18 19 19 20 17 13 16 14 15 15 16 24 18 16 23 22 21 25 21 25 28 33 34 33 33
22 20 23 28 25 24 24 24 24 24 24 23 22 23 22 20 20 20 20 19 19 19 18 18 19 19 15 15 11 10 14 12 13 23 22 22 23 26 25 23 23 24 30 30 32 27 25
20 26 26 24 24 25 25 24 23 23 24 24 22 22 22 20 20 20 20 22 20 21 18 19 19 18 9 9 8 11 12 12 15 16 22 22 27 30 28 25 23 27 25 26 25 24 26
28 25 25 26 25 24 24 24 24 23 24 24 22 22 22 21 21 22 21 23 21 21 18 17 19 15 13 8 12 15 12 11 12 15 19 26 28 29 32 27 18 23 24 23 24 15 24
23 25 27 25 24 24 24 24 23 24 24 24 24 22 22 21 22 22 21 22 21 21 15 20 20 20 17 15 20 19 12 12 14 8 16 26 29 35 34 31 24 23 22 26 30 19 24
27 24 23 23 23 24 24 25 25 24 25 25 24 23 23 21 22 20 20 20 21 21 23 18 19 18 9 13 14 12 17 14 13 10 11 24 25 31 30 19 24 27 29 34 25 19 11
22 21 21 22 23 24 25 25 26 26 25 27 26 24 23 22 23 19 18 17 19 18 25 14 12 7 7 9 11 8 20 15 12 11 13 14 23 22 23 20 27 28 28 28 25 17 26
17 17 18 18 19 20 22 24 27 28 27 27 27 25 23 22 23 18 18 16 18 14 15 10 8 3 3 5 4 9 16 16 13 12 20 15 10 15 26 21 25 29 27 24 22 30 27
17 18 20 21 22 22 23 24 25 27 29 29 29 26 24 25 23 20 21 14 13 9 6 3 6 4 6 2 5 7 1 15 18 15 15 11 9 20 22 21 22 20 22 23 26 31 29
18 19 20 21 23 24 24 24 26 28 29 30 31 27 24 28 21 21 16 13 9 2 8 11 8 4 6 6 7 9 7 14 16 20 18 20 15 15 32 18 12 15 13 19 24 27 16
20 21 22 23 25 25 25 26 27 28 30 31 31 28 25 26 19 21 14 11 4 7 3 10 6 7 6 8 13 15 10 8 15 15 21 22 20 17 16 19 11 20 14 5 7 8 5
23 24 25 26 26 27 27 26 27 28 30 30 31 28 25 25 19 19 16 14 11 8 14 2 9 6 9 7 9 14 10 10 12 13 12 10 6 13 17 23 13 17 24 10 3 2 5
25 27 28 29 29 28 28 27 27 27 28 29 29 28 29 20 20 19 20 17 12 17 7 12 8 10 9 10 10 9 17 9 8 14 14 5 7 6 9 21 18 13 28 29 14 17 6
28 29 30 30 30 29 27 26 25 24 24 25 26 28 24 20 19 20 24 29 28 22 10 7 7 7 10 7 8 4 8 9 11 3 9 8 12 9 2 14 14 22 15 15 6 3 3
30 31 31 31 30 29 28 25 23 19 19 21 22 25 12 13 17 20 30 35 35 27 13 8 10 14 16 13 6 8 1 2 3 5 8 13 17 13 6 11 26 15 16 13 10 12 2
31 31 31 30 29 28 27 24 21 17 15 17 15 20 5 12 21 25 29 31 32 27 18 15 14 16 15 13 10 5 9 4 3 8 7 9 7 13 25 17 14 15 25 25 6 3 11
32 31 31 30 28 25 25 23 20 17 14 14 20 21 13 14 31 28 24 27 26 25 27 16 12 12 18 17 12 8 8 12 9 5 6 8 6 7 6 9 19 18 20 18 22 18 14
31 30 31 29 27 26 24 22 16 15 15 18 19 16 11 23 26 19 17 20 21 15 22 21 22 19 17 18 14 11 11 7 7 5 13 14 14 8 8 13 11 18 21 24 26 13 15
31 30 29 27 25 25 21 17 15 16 20 21 22 22 16 11 17 30 23 25 18 17 20 18 21 24 18 18 17 17 14 16 16 16 16 12 12 17 19 18 13 14 12 18 22 25 17
29 29 26 23 20 20 17 16 19 20 24 25 26 22 23 26 24 20 18 27 27 29 19 19 22 17 19 19 17 17 16 13 11 4 9 10 6 11 18 14 13 11 13 17 21 17 31
28 27 25 23 24 23 21 22 21 25 24 30 28 24 26 23 19 21 24 18 15 20 21 23 17 19 21 17 22 22 18 17 14 15 11 5 4 12 4 10 11 11 12 17 16 21 15
28 28 26 24 23 20 20 21 25 24 27 29 26 22 26 31 28 23 19 16 18 16 26 22 19 17 17 20 17 18 23 17 26 22 18 17 7 8 11 15 3 8 4 17 20 15 8
29 25 22 20 18 18 16 18 21 28 28 29 27 23 25 24 28 29 27 25 15 20 19 19 13 19 19 19 13 9 11 17 23 26 27 25 23 12 7 6 18 17 7 3 15 10 10
24 23 22 20 19 19 19 19 21 24 30 31 29 28 28 32 34 21 18 18 23 18 17 19 13 11 10 8 10 7 5 5 8 8 9 29 27 23 9 5 4 5 7 7 1 7 10
26 23 20 19 19 19 19 18 20 23 29 32 31 27 27 31 30 23 14 15 21 14 5 8 12 13 12 12 12 15 12 12 11 13 16 20 28 32 27 11 8 11 11 8 8 8 9
20 19 20 22 24 25 26 25 23 20 28 31 30 28 26 31 30 27 21 9 17 13 9 3 8 10 13 10 9 11 10 14 14 22 19 18 20 22 26 14 14 12 14 9 11 15 19
18 20 24 27 29 29 28 28 26 34 24 31 30 27 24 26 25 25 29 21 23 19 16 16 11 3 6 4 5 7 10 14 9 5 3 5 17 14 21 25 7 13 19 15 20 19 24
Wind_Direction
279 283 290 292 294 294 295 295 292 288 286 286 289 289 292 294 294 293 292 293 294 294 293 295 296 299 299 301 302 268 284 282 278 249 265 255 228 221 220 225 235 237 243 245 249 260 267
283 291 293 295 294 294 291 288 290 289 290 291 292 291 292 292 292 290 291 290 288 288 293 296 297 300 307 310 294 265 279 299 235 248 224 214 200 216 236 233 228 237 255 247 246 255 261
285 290 292 292 291 288 285 285 287 290 291 291 291 290 289 288 288 285 284 284 287 291 295 297 298 300 311 298 290 288 279 287 241 236 226 217 198 214 215 232 238 248 254 253 252 252 254
284 286 289 283 285 287 286 285 286 289 290 291 291 291 291 294 293 293 292 290 289 290 294 293 295 300 319 299 296 279 264 285 255 228 231 229 220 222 222 223 220 243 245 255 241 242 252
291 282 284 290 290 288 287 286 286 288 288 290 291 291 293 295 293 290 288 286 288 290 292 292 292 298 309 301 286 270 267 262 254 244 239 233 226 226 217 219 229 232 248 239 255 237 242
283 290 290 286 286 287 289 290 290 290 289 290 290 290 293 295 294 292 291 290 291 290 291 283 289 290 295 267 270 269 267 257 257 250 246 233 234 225 231 213 220 232 236 242 238 239 251
279 273 282 286 288 289 290 289 289 290 291 291 293 292 293 296 295 297 299 297 289 287 286 287 285 296 288 293 284 281 266 241 250 258 255 246 237 229 225 224 224 227 240 259 248 269 278
274 279 283 287 290 290 289 289 288 288 289 290 289 291 293 294 293 298 301 307 309 306 296 291 284 282 276 274 291 279 241 234 251 267 291 225 241 230 223 230 238 237 245 256 266 261 261
279 281 285 288 290 290 291 290 290 290 289 289 288 290 291 292 292 297 294 289 291 304 305 295 277 255 258 303 315 299 217 222 233 277 296 277 242 226 216 223 231 242 249 254 269 269 274
284 290 292 292 292 293 296 294 292 291 290 287 287 287 288 287 285 285 277 293 300 316 309 288 243 273 266 288 280 334 232 211 227 253 256 283 227 217 214 241 234 245 245 253 270 280 277
288 294 294 295 296 295 295 295 295 294 293 289 286 285 284 279 279 282 283 288 289 318 320 181 221 287 290 265 337 322 270 203 208 236 249 284 269 221 224 232 224 267 253 256 276 287 267
294 296 297 297 297 298 300 299 293 289 289 288 287 282 278 277 278 276 280 268 265 297 254 197 234 230 292 312 292 289 289 230 232 224 257 264 292 259 232 220 234 252 253 265 262 276 266
295 298 300 300 299 297 298 297 294 290 286 283 283 281 276 269 275 266 257 231 221 228 208 204 218 196 227 257 251 240 281 243 219 220 242 259 268 269 231 210 245 225 223 289 238 235 215
298 299 300 300 298 297 296 294 291 289 285 281 278 276 269 266 263 256 248 206 217 232 243 308 241 264 264 275 256 216 260 241 261 231 264 247 279 229 228 238 226 215 226 213 219 210 235
296 298 299 299 298 297 295 293 291 288 285 282 277 271 263 261 254 246 229 209 215 230 271 318 277 263 276 262 210 228 244 249 266 248 215 244 267 220 221 220 221 246 230 227 298 286 312
296 298 297 296 295 294 292 290 288 287 283 281 278 269 263 252 242 231 226 229 234 223 267 281 284 282 306 334 194 266 250 208 240 257 252 241 270 254 247 247 235 230 244 229 220 222 204
296 296 295 294 292 289 287 282 278 280 277 274 283 277 273 241 223 213 222 238 246 241 262 292 296 269 288 305 301 254 302 320 195 238 207 245 252 260 275 245 213 217 200 205 217 249 276
295 294 291 289 288 284 280 276 266 266 275 268 269 268 247 218 208 217 234 240 247 243 213 257 267 263 273 293 305 260 258 291 261 292 274 249 274 268 266 233 237 260 217 217 192 205 243
295 293 291 290 286 282 279 270 262 255 256 267 263 266 223 215 209 222 237 249 259 260 233 238 263 264 273 273 288 265 273 302 299 304 312 298 242 283 296 249 238 237 217 220 231 247 251
292 292 290 288 284 279 276 272 256 246 238 253 265 264 237 231 231 239 239 259 255 246 245 233 266 253 251 259 255 258 246 260 201 359 317 316 277 240 273 302 280 258 241 235 220 226 229
292 291 288 285 278 276 270 261 238 234 234 243 253 241 225 259 243 241 248 252 264 247 234 250 262 241 253 267 254 255 258 272 273 286 274 288 291 267 263 271 289 270 238 229 219 239 218
289 287 285 281 278 275 253 250 232 231 231 238 244 241 237 248 261 278 261 251 256 258 269 239 235 247 255 262 264 259 257 267 252 242 233 269 281 296 280 277 270 256 266 242 222 234 226
287 283 279 273 269 268 254 233 231 229 236 237 238 239 245 247 257 267 267 279 276 258 262 279 254 234 233 250 245 251 251 259 243 244 248 266 339 338 290 335 295 261 244 231 244 242 226
288 284 279 274 270 262 258 248 230 227 231 236 236 240 241 250 252 253 271 260 288 268 253 249 273 266 233 236 250 252 254 260 263 254 248 257 265 293 303 322 256 226 188 242 248 260 209
285 281 274 266 263 259 249 248 243 226 230 234 229 232 235 254 257 257 261 272 279 295 242 238 251 255 250 240 259 273 279 278 267 262 258 249 251 244 252 258 289 282 221 188 194 195 231
278 274 270 265 259 252 247 239 236 230 225 232 230 231 240 248 245 266 259 258 289 305 279 221 243 254 268 263 235 232 235 261 255 269 273 236 234 223 218 223 228 307 252 174 300 109 110
276 268 259 251 248 247 246 244 237 229 223 229 229 229 234 247 253 249 228 256 264 280 315 197 241 253 244 252 252 242 259 260 265 271 262 219 216 219 226 247 252 231 277 228 218 173 166
268 260 253 254 257 260 254 247 239 232 219 223 231 228 232 243 248 247 252 259 258 273 268 233 228 246 238 223 223 234 248 262 260 253 265 211 199 214 218 230 254 205 279 231 233 198 199
261 258 258 261 263 262 264 261 254 236 221 218 226 227 233 243 247 242 241 245 261 264 262 251 307 317 188 171 208 230 237 260 271 274 257 234 196 203 213 219 233 245 237 228 232 229 216